Regional Weather Roundup
Issued by NWS

Home | Current Version | Previous Version | Text Only | Print | Product List | Glossary On
Versions: 1 2 3 4 5 6 7 8 9 10 11 12 13 14 15 16 17 18 19 20 21 22 23 24 25 26 27 28 29 30 31 32 33 34 35 36 37 38 39 40 41 42 43 44 45 46 47 48 49 50
000
ASUS43 KFSD 210502
RWRSD

WEATHER ROUNDUP FOR SOUTH DAKOTA
NATIONAL WEATHER SERVICE SIOUX FALLS SD
1200 AM CDT SAT APR 21 2018

NOTE: "FAIR" INDICATES FEW OR NO CLOUDS BELOW 12,000 FEET WITH NO
SIGNIFICANT WEATHER AND/OR OBSTRUCTIONS TO VISIBILITY.


SDZ001>005-009-010-012>017-210600-
NORTHWEST AND NORTH CENTRAL SOUTH DAKOTA

CITY           SKY/WX    TMP DP  RH WIND       PRES   REMARKS
BUFFALO          N/A     39  35  86 S21       30.11F
FAITH            N/A     41  41 100 SE16      30.25S
MOBRIDGE       CLOUDY    43  36  76 SE12      30.28S
$$

SDZ012>016-024>037-041>051-057-063-072>074-210600-
SOUTHWEST AND SOUTH CENTRAL SOUTH DAKOTA

CITY           SKY/WX    TMP DP  RH WIND       PRES   REMARKS
RAPID CTY ARPT CLOUDY    39  38  96 SE12      30.24R
PIERRE         CLOUDY    42  41  96 E5        30.29F
CUSTER         FOG       32  30  92 VRB3      30.19R VSB<1/4
ELLSWORTH AFB  CLOUDY    40  40 100 S12       30.23R
PHILIP         CLOUDY    42  40  92 SE10      30.27S
PINE RIDGE     CLOUDY    39  37  92 E7        30.24S
SPEARFISH      CLOUDY    39  36  87 SE7       30.17S
WINNER         CLOUDY    40  35  83 SE9       30.29F
$$

SDZ004>011-016>023-039-040-210600-
NORTHEAST SOUTH DAKOTA

CITY           SKY/WX    TMP DP  RH WIND       PRES   REMARKS
ABERDEEN       MOCLDY    38  36  92 CALM      30.35F
WATERTOWN      PTCLDY    37  35  92 S6        30.35F
BROOKINGS      CLOUDY    37  32  82 SE3       30.36F
SISSETON         N/A     36  35  96 SE8       30.36F
$$

SDZ017-020-022-023-036>040-048>070-210600-
SOUTHEAST SOUTH DAKOTA

CITY           SKY/WX    TMP DP  RH WIND       PRES   REMARKS
SIOUX FALLS    CLOUDY    40  33  76 E5        30.35F
HURON          CLOUDY    39  36  89 SE3       30.35F
CHAMBERLAIN    CLOUDY    42  42 100 SE8       30.32F
MITCHELL       CLOUDY    41  37  86 S9        30.35F
YANKTON        CLOUDY    43  37  79 NE8       30.36F
$$

ABBREVIATIONS USED IN REMARKS
   TC - TEMPERATURE IN CELSIUS
  WCI - WIND CHILL INDEX
   HX - HEAT INDEX
  VSB - VISIBILITY





USA.gov is the U.S. government's official web portal to all federal, state and local government web resources and services.